Regional Weather Roundup
Issued by NWS

Home | Current Version | Previous Version | Graphics & Text | Print | Product List | Glossary On
Versions: 1 2 3 4 5 6 7 8 9 10 11 12 13 14 15 16 17 18 19 20 21 22 23 24 25 26 27 28 29 30 31 32 33 34 35 36 37 38 39 40 41 42 43 44 45 46 47 48 49 50
000
ASUS43 KLMK 010402
RWRKY
KENTUCKY REGIONAL WEATHER ROUNDUP
NATIONAL WEATHER SERVICE LOUISVILLE KY
1200 AM EDT FRI AUG 01 2014

NOTE "FAIR" INDICATES FEW OR NO CLOUDS BELOW 12,000 FEET
WITH NO SIGNIFICANT WEATHER AND/OR OBSTRUCTIONS TO VISIBILITY.

KYZ001>023-026-027-061>063-070>075-010500-
WESTERN AND SOUTH CENTRAL KENTUCKY

CITY           SKY/WX    TMP DP  RH WIND       PRES   REMARKS
PADUCAH        CLEAR     65  61  87 CALM      30.07S
HENDERSON      CLEAR     64  61  88 CALM      30.07S
OWENSBORO      PTCLDY    70  62  75 CALM      30.08R
HOPKINSVILLE   MOCLDY    72  62  70 NW6       30.07S
BOWLING GREEN  CLEAR     70  60  70 CALM      30.08S
GLASGOW        MOCLDY    66  60  81 CALM      30.08F
$$

KYZ024-025-028>034-038-045-046-053-010500-
NORTH CENTRAL KENTUCKY

CITY           SKY/WX    TMP DP  RH WIND       PRES   REMARKS
LOUISVILLE/SDF PTCLDY    73  60  63 CALM      30.08S
LOUISVILLE/LOU CLEAR     70  58  65 CALM      30.09S
FORT KNOX      PTCLDY    63  60  93 NW3       30.08S
$$

KYZ035>037-039>044-047>052-055>060-089>105-010500-
NORTHEAST KENTUCKY

CITY           SKY/WX    TMP DP  RH WIND       PRES   REMARKS
LEXINGTON      PTCLDY    67  60  78 CALM      30.11S
COVINGTON      CLEAR     69  60  73 CALM      30.10S
FRANKFORT      PTCLDY    65  60  84 CALM      30.09S
$$

KYZ054-064>069-076>088-106>120-010500-
SOUTHEAST KENTUCKY

CITY           SKY/WX    TMP DP  RH WIND       PRES   REMARKS
JACKSON        MOCLDY    70  60  70 CALM      30.13R
LONDON         PTCLDY    68  61  78 CALM      30.12S
SOMERSET       PTCLDY    63  63 100 CALM      30.11F
MIDDLESBORO    PTCLDY    65  62  88 CALM      30.13S
MONTICELLO     PTCLDY    62  61  97 CALM      30.12S FOG
$$



USA.gov is the U.S. government's official web portal to all federal, state and local government web resources and services.